Temperature
20 19 19 19 19 18 18 18 18 18 18 18 18 17 17 17 17 17 17 17 17 17 17 17 17 17 17 17 17 17 17 16 16 16 16 16 16 16 16 16 16 16 15
19 19 19 19 18 18 18 18 18 18 18 17 17 17 17 17 17 17 17 17 17 17 16 16 16 16 16 16 16 16 16 16 16 16 16 16 16 16 16 15 15 15 15
19 19 19 18 18 18 18 18 18 17 17 17 17 17 17 17 16 16 16 16 16 16 16 16 16 16 16 16 16 16 16 15 15 15 15 15 15 15 15 15 15 14 14
19 19 18 18 18 18 18 18 17 17 17 17 17 17 16 16 16 16 16 16 16 15 15 15 15 15 15 15 15 15 15 15 15 15 15 14 15 14 14 14 14 14 13
18 18 18 18 18 17 17 17 17 17 17 16 16 16 16 16 16 16 16 15 15 15 15 15 15 15 15 15 15 14 14 14 14 14 14 14 14 14 14 14 13 13 13
18 18 18 17 17 17 17 17 17 16 16 16 16 16 16 15 15 15 15 15 15 15 15 14 14 14 14 14 14 14 14 14 14 13 13 13 13 13 13 13 13 13 12
18 17 17 17 17 17 16 16 16 16 16 16 15 15 15 15 15 15 15 15 15 14 14 14 14 13 13 13 13 13 13 13 13 13 13 12 12 12 12 12 12 12 12
17 17 17 17 16 16 16 16 16 15 15 15 15 15 15 14 14 14 14 14 14 14 14 13 13 13 13 13 13 13 12 12 12 12 12 12 12 12 12 12 11 12 11
17 17 16 16 16 16 16 15 15 15 15 15 15 14 14 14 14 14 14 14 13 13 13 13 13 13 12 12 12 12 12 12 11 11 11 11 11 11 11 11 11 11 10
17 16 16 16 16 16 15 15 15 15 14 14 14 14 14 14 14 13 13 13 13 12 12 12 12 12 12 12 12 11 11 11 11 11 11 11 11 11 10 10 10 10 10
16 16 16 16 16 15 15 15 14 14 14 14 14 13 13 13 13 13 13 13 12 12 12 12 12 11 11 11 11 11 11 11 11 11 11 10 10 10 10 10 10 10 9
16 16 16 15 15 15 15 14 14 14 14 13 13 13 12 13 12 12 12 12 12 12 12 11 11 11 11 11 11 11 10 10 10 10 10 10 10 10 10 9 9 9 9
16 15 15 15 14 14 14 14 14 14 13 13 13 12 12 12 12 12 12 11 11 11 11 11 11 11 10 10 10 10 10 10 10 10 10 9 9 9 9 9 9 9 9
15 15 14 14 14 14 14 13 13 13 13 13 12 12 12 12 12 11 11 11 11 11 11 11 10 10 10 10 10 10 10 10 10 9 9 9 9 9 9 9 9 9 9
14 14 14 14 13 13 13 13 13 13 13 13 12 12 12 11 11 11 11 11 11 11 10 10 10 10 10 10 9 9 9 9 9 9 9 9 9 9 8 8 8 8 8
14 13 13 13 13 13 13 13 13 13 12 12 12 12 12 11 11 11 10 10 10 10 10 10 10 10 10 9 9 9 9 9 8 8 8 8 8 8 8 8 8 8 8
13 13 13 13 13 13 12 13 12 12 12 12 12 12 11 11 11 11 10 10 10 10 10 10 10 9 9 9 9 9 8 8 8 8 8 8 8 8 8 8 8 8 7
13 13 13 13 13 12 12 12 12 12 11 11 11 11 11 11 10 10 10 10 10 10 10 9 9 9 9 8 8 8 8 7 7 7 7 7 7 7 7 7 7 7 7
13 13 13 13 13 12 12 12 12 11 11 11 11 11 10 10 10 10 10 10 10 9 9 9 9 8 8 8 8 7 7 7 7 7 7 7 7 7 7 7 7 7 7
13 13 13 13 12 12 12 12 12 11 11 11 10 10 10 10 10 9 9 9 9 9 9 8 8 8 7 7 7 7 7 7 7 7 7 7 7 7 7 7 7 6 6
12 12 12 12 12 12 12 12 11 11 11 10 10 10 10 10 9 9 9 9 8 8 8 8 8 7 7 7 7 7 7 6 6 6 6 6 6 6 6 6 6 6 6
12 12 12 12 12 12 12 12 11 11 11 10 10 10 9 9 9 9 9 8 8 8 7 7 7 7 7 7 6 6 6 6 6 6 6 6 6 6 6 6 6 6 6
12 12 12 12 12 11 11 11 11 11 10 10 10 9 9 9 9 9 8 8 8 7 7 7 7 6 6 6 6 6 6 6 5 5 5 5 5 5 5 5 6 6 6
12 12 12 11 11 11 11 11 11 11 10 10 10 9 9 9 8 8 8 7 7 7 7 6 6 6 6 6 5 5 5 5 5 5 5 5 5 5 5 5 5 5 5
12 12 11 11 11 11 11 11 11 10 10 10 9 9 9 9 8 8 7 7 7 7 6 6 6 6 6 5 5 5 5 5 5 5 5 4 4 4 4 4 5 5 5
11 11 11 11 11 11 10 10 10 10 10 9 9 9 9 8 8 8 7 7 7 6 6 6 6 5 5 5 5 5 5 5 5 4 4 4 4 4 4 4 4 4 5
Wind_Speed
4 3 2 2 2 1 1 1 1 1 1 2 2 1 1 1 1 2 2 2 2 2 2 3 3 3 2 2 2 2 2 2 3 3 2 2 1 1 1 1 2 4 5
4 3 2 2 2 1 1 1 1 2 2 2 2 2 2 2 2 0 0 1 0 0 1 1 2 2 1 1 2 2 2 2 2 3 2 2 2 2 1 1 1 2 3
5 4 3 2 2 2 2 2 2 2 2 3 3 3 3 4 3 3 3 3 3 3 3 3 2 2 2 2 1 2 1 2 1 1 2 1 1 2 2 2 1 1 2
5 4 4 3 2 3 3 3 3 3 4 4 4 4 4 4 4 4 4 5 5 5 5 5 5 4 3 2 2 2 1 1 1 0 0 1 1 2 1 1 1 1 2
5 4 4 3 4 4 4 4 4 4 4 5 5 5 5 5 5 5 5 6 6 6 6 7 7 9 10 7 5 5 4 3 2 2 2 2 3 3 2 2 1 2 3
5 5 5 4 5 5 5 5 5 5 5 6 6 6 7 7 10 11 8 7 7 7 6 6 7 8 9 10 11 11 9 5 4 3 3 3 3 3 3 2 2 2 1
6 5 5 5 6 5 6 6 6 6 6 6 6 7 9 10 11 11 11 8 8 8 8 7 7 7 7 6 8 10 11 12 9 5 5 4 3 4 3 3 3 2 1
6 5 5 6 6 6 7 7 6 6 6 6 7 8 8 9 11 10 10 9 9 9 9 9 8 8 9 7 7 8 9 9 8 7 6 5 5 4 3 3 2 2 3
7 6 6 6 6 7 7 7 6 7 7 7 7 8 8 8 11 10 7 7 8 9 9 10 9 9 11 9 7 7 7 6 8 10 9 7 8 9 6 4 4 3 3
7 6 6 6 6 7 6 6 7 7 7 8 9 8 8 8 11 12 8 6 7 7 7 9 13 11 12 11 7 6 6 5 4 4 4 4 5 7 9 6 4 4 3
8 7 7 7 7 7 6 6 7 7 8 8 8 8 8 8 10 13 10 5 6 6 6 6 7 10 12 12 9 6 4 3 1 2 3 3 4 4 5 6 5 3 3
8 8 7 6 6 7 7 6 6 7 7 7 7 7 6 7 8 10 12 11 8 7 6 6 5 7 9 9 7 7 7 5 2 3 4 4 4 4 4 3 3 3 2
8 7 7 7 6 5 5 5 4 4 4 5 5 6 6 6 7 10 11 11 11 7 5 5 3 3 3 4 5 7 6 4 4 5 5 5 3 3 2 2 2 2 2
8 7 7 7 7 6 5 4 4 3 3 4 4 6 6 6 5 4 5 6 6 5 3 2 1 2 2 4 4 5 4 5 5 4 4 3 3 3 3 3 2 2 2
8 7 7 8 8 8 9 8 8 7 5 4 5 5 5 5 4 4 3 3 3 4 2 0 1 2 3 4 4 4 5 5 5 5 4 4 4 3 3 3 3 3 3
7 7 6 7 7 8 9 10 15 12 14 15 13 10 8 8 6 8 9 9 8 7 4 3 4 4 5 5 4 4 5 5 5 5 4 4 4 4 4 3 3 3 3
6 6 6 6 7 7 8 8 8 9 14 15 14 13 11 8 7 7 7 7 6 5 3 4 4 4 5 5 5 5 5 5 4 5 4 4 4 4 4 4 4 4 4
6 5 5 5 6 6 7 7 7 8 7 6 7 8 7 6 5 5 6 4 2 2 3 4 5 5 5 5 5 5 5 4 4 4 4 4 4 4 4 4 4 5 4
5 4 4 5 5 6 6 7 7 8 8 8 6 4 3 2 1 3 3 2 2 4 4 5 5 5 5 4 4 4 4 4 4 4 4 5 5 5 4 4 4 5 4
4 6 5 5 5 5 6 6 7 7 7 6 6 5 3 4 2 2 2 2 3 5 5 5 5 5 4 4 4 4 4 4 5 5 5 5 5 5 5 5 5 4 4
6 6 5 4 4 5 5 6 6 6 7 6 6 4 2 2 3 4 4 4 5 5 5 4 4 4 4 3 4 5 5 5 5 5 5 5 5 4 4 4 4 4 4
6 6 5 5 5 6 5 5 6 7 7 7 6 4 1 1 4 4 4 4 5 4 4 3 4 4 4 5 5 6 6 7 7 7 6 6 5 5 5 4 4 4 4
5 6 6 6 6 5 4 5 6 6 6 6 6 5 3 3 4 4 5 5 4 4 5 5 5 6 7 9 9 9 7 7 7 8 7 7 6 5 5 6 6 5 5
6 7 7 7 6 5 5 5 5 5 5 5 5 5 4 3 4 4 4 4 4 4 4 5 6 7 9 8 9 11 10 9 9 10 10 8 7 6 6 6 6 7 5
5 6 6 6 6 5 5 5 5 5 5 5 5 4 4 4 4 4 4 4 4 4 4 5 5 7 8 9 10 9 9 11 11 11 10 9 7 6 6 7 6 6 5
5 5 6 6 5 5 5 5 5 5 4 4 4 3 3 3 4 4 3 3 3 3 3 3 4 6 7 8 8 7 7 8 10 12 11 8 7 5 6 6 8 7 6
Wind_Direction
154 161 145 150 161 185 228 286 49 44 352 340 3 2 328 281 232 218 237 233 221 247 258 255 255 255 258 274 285 269 252 230 242 270 295 331 8 44 86 146 181 161 176
139 138 136 135 135 135 96 41 63 68 52 29 32 41 29 24 16 26 352 19 23 296 304 322 325 309 313 315 310 295 275 260 239 256 294 334 352 19 26 348 83 142 147
131 133 127 118 112 102 83 77 80 81 71 57 59 55 42 38 34 41 45 36 37 36 34 25 14 19 18 9 352 328 314 298 249 232 274 315 343 356 347 343 28 42 74
121 121 116 108 104 96 87 80 75 76 73 66 64 56 50 45 41 44 51 53 53 47 42 40 33 29 19 8 8 353 345 355 335 292 304 333 341 339 0 331 19 39 52
118 115 108 100 92 94 90 82 74 71 75 70 65 57 48 47 40 46 53 64 60 55 49 50 55 57 55 49 44 27 21 22 19 30 29 30 16 0 351 331 31 57 60
112 104 99 97 93 92 92 88 81 76 72 73 67 63 59 54 44 48 57 64 59 55 53 52 64 62 64 67 64 58 50 45 37 41 34 34 20 12 1 5 39 41 31
108 102 100 97 95 89 92 92 85 77 71 74 71 70 65 48 45 53 56 67 63 54 47 46 55 52 49 68 71 63 55 48 49 59 50 30 27 14 18 22 20 20 17
113 106 99 98 96 91 87 87 84 80 78 77 75 72 71 52 44 52 62 72 67 57 49 46 50 45 37 44 67 66 59 48 46 61 61 48 41 17 17 25 28 34 66
112 106 102 102 98 92 89 89 87 85 80 76 76 74 70 53 38 41 65 81 76 65 58 50 48 48 32 43 66 73 70 67 63 69 72 65 53 42 36 38 31 40 44
112 105 101 101 101 99 95 95 96 94 91 86 78 72 69 58 40 40 56 85 87 83 74 62 51 44 35 37 53 61 63 52 52 57 64 56 54 49 46 41 35 34 37
110 107 101 98 99 102 99 98 101 100 98 96 92 81 71 64 53 46 46 70 79 80 73 64 49 41 43 41 46 51 42 14 18 72 83 72 58 51 52 50 43 43 43
108 107 104 104 106 107 105 108 110 114 112 109 106 97 84 71 59 56 56 60 66 75 73 73 68 51 49 43 43 25 11 5 16 52 63 56 53 51 46 48 48 46 71
109 105 103 99 90 98 106 113 122 127 122 119 114 102 91 83 72 67 68 68 67 74 79 83 77 53 35 46 37 19 14 20 29 45 51 51 49 42 34 28 18 11 16
112 108 106 101 91 77 74 77 76 66 88 103 103 106 102 89 72 62 74 79 87 86 93 105 69 360 21 36 33 37 40 33 33 41 42 38 33 33 30 25 17 7 24
119 117 112 103 97 80 66 49 60 51 46 76 86 91 103 96 60 47 71 67 57 48 11 97 91 85 79 69 59 48 40 35 35 31 30 25 25 25 23 22 16 9 20
133 135 126 121 116 111 103 82 55 59 57 61 71 87 82 92 90 66 57 49 38 18 22 57 59 52 51 51 52 56 51 35 24 25 27 23 19 18 18 16 16 16 14
136 137 133 132 134 131 128 121 107 73 61 59 65 78 91 96 80 62 45 24 3 5 37 64 62 52 49 48 47 47 49 36 19 22 24 19 10 7 8 8 16 17 12
131 127 133 138 140 136 135 135 135 128 112 89 70 76 89 87 66 42 29 15 23 60 59 67 65 60 52 45 43 40 42 34 20 20 17 8 2 6 6 8 21 14 0
129 131 130 133 136 137 137 135 129 126 124 125 124 110 106 109 38 359 1 6 43 62 66 65 61 59 56 51 43 40 40 35 20 12 18 9 6 8 11 7 11 9 356
115 121 132 139 139 144 140 133 128 127 125 124 124 126 147 170 157 118 87 34 51 62 59 61 58 53 46 40 36 32 33 31 19 19 22 9 7 5 5 5 5 3 358
133 133 141 149 144 131 122 121 120 120 120 115 111 110 106 130 110 97 83 62 60 63 56 58 64 52 47 32 28 29 31 29 21 16 13 2 3 360 353 357 0 357 354
138 144 147 129 110 101 107 116 119 117 119 118 122 125 122 94 89 89 86 80 73 68 62 42 55 53 39 32 35 34 31 28 23 12 2 354 352 348 349 355 353 350 356
138 131 118 105 104 113 123 118 118 121 121 124 129 127 118 91 89 89 85 78 71 65 57 41 46 53 46 43 45 45 36 25 9 4 355 349 346 348 353 354 348 353 6
138 134 128 126 129 133 122 117 117 120 122 121 120 118 120 106 93 89 87 86 79 72 67 62 60 61 60 53 54 55 46 30 14 4 351 334 336 347 346 344 342 346 356
136 131 130 132 136 133 126 126 126 125 125 125 124 123 122 123 118 114 105 95 88 80 70 68 72 74 73 68 71 65 47 34 23 8 346 332 332 342 343 340 338 334 344
130 128 128 130 129 125 125 124 119 118 119 121 119 116 117 119 116 113 111 102 98 92 90 89 82 88 97 92 87 75 51 29 12 0 346 323 322 334 342 333 331 333 339
Height
1527 1528 1528 1529 1529 1530 1530 1529 1529 1529 1528 1528 1528 1528 1527 1528 1529 1529 1529 1530 1530 1531 1532 1532 1533 1533 1533 1534 1535 1535 1536 1537 1537 1537 1538 1539 1539 1539 1538 1538 1538 1537 1537
1526 1526 1527 1528 1528 1528 1528 1528 1528 1527 1527 1527 1527 1527 1527 1527 1527 1527 1527 1528 1528 1528 1529 1529 1529 1529 1530 1530 1531 1532 1532 1533 1534 1534 1534 1535 1535 1536 1535 1535 1535 1534 1534
1525 1526 1526 1526 1527 1527 1527 1527 1527 1527 1527 1526 1526 1526 1526 1526 1526 1526 1526 1526 1526 1526 1527 1527 1527 1527 1527 1528 1528 1529 1529 1530 1531 1531 1531 1532 1532 1532 1532 1532 1532 1532 1531
1524 1525 1525 1525 1525 1526 1526 1526 1526 1526 1526 1526 1526 1526 1526 1526 1526 1526 1526 1526 1525 1525 1525 1525 1525 1525 1525 1526 1526 1526 1527 1527 1528 1528 1529 1529 1529 1529 1529 1529 1529 1529 1529
1523 1524 1524 1524 1525 1525 1525 1526 1526 1526 1526 1526 1526 1526 1527 1526 1526 1526 1526 1526 1525 1525 1525 1525 1525 1524 1524 1524 1525 1525 1525 1526 1526 1527 1527 1527 1526 1526 1526 1527 1527 1527 1527
1523 1524 1524 1524 1525 1525 1525 1526 1526 1526 1526 1526 1527 1527 1527 1527 1527 1527 1527 1527 1526 1526 1526 1525 1525 1524 1524 1524 1525 1525 1525 1525 1525 1525 1525 1525 1525 1525 1525 1525 1525 1525 1525
1523 1523 1524 1525 1525 1525 1526 1526 1526 1527 1527 1527 1528 1528 1528 1529 1529 1529 1529 1528 1528 1527 1527 1526 1526 1525 1525 1525 1525 1525 1525 1525 1526 1526 1525 1525 1525 1525 1524 1524 1524 1524 1524
1523 1524 1525 1525 1526 1526 1526 1527 1527 1527 1527 1528 1529 1529 1530 1530 1530 1530 1531 1530 1529 1529 1529 1528 1528 1527 1527 1527 1527 1527 1526 1526 1526 1526 1526 1526 1525 1525 1524 1524 1524 1524 1524
1523 1524 1525 1526 1526 1527 1527 1528 1528 1529 1529 1530 1530 1531 1531 1532 1532 1532 1532 1531 1531 1531 1531 1531 1530 1529 1529 1529 1528 1528 1528 1528 1528 1528 1527 1527 1526 1525 1525 1524 1524 1524 1523
1523 1524 1525 1526 1527 1528 1529 1529 1530 1530 1531 1532 1532 1532 1533 1534 1534 1534 1534 1534 1534 1533 1533 1533 1533 1532 1532 1531 1531 1530 1530 1530 1530 1530 1529 1529 1528 1527 1526 1525 1525 1525 1524
1523 1524 1526 1527 1528 1529 1530 1531 1532 1532 1533 1533 1534 1535 1535 1536 1536 1536 1536 1536 1536 1536 1535 1535 1535 1535 1534 1533 1533 1532 1532 1532 1532 1532 1531 1531 1530 1529 1528 1527 1527 1526 1526
1523 1525 1526 1528 1529 1530 1531 1532 1533 1534 1535 1535 1536 1537 1537 1538 1538 1538 1538 1538 1538 1538 1538 1538 1537 1537 1537 1536 1535 1535 1535 1535 1534 1534 1533 1533 1532 1531 1530 1530 1529 1528 1528
1524 1525 1527 1528 1530 1531 1532 1534 1535 1536 1537 1538 1538 1539 1539 1539 1539 1540 1540 1540 1540 1540 1540 1540 1540 1539 1539 1538 1538 1537 1537 1536 1536 1536 1535 1535 1534 1533 1532 1531 1531 1530 1529
1524 1526 1527 1529 1530 1532 1533 1535 1536 1537 1538 1539 1540 1540 1540 1541 1541 1541 1541 1542 1542 1542 1542 1542 1542 1542 1541 1541 1540 1540 1539 1538 1538 1537 1537 1536 1535 1534 1533 1533 1532 1531 1530
1524 1526 1528 1530 1531 1532 1534 1535 1536 1538 1539 1540 1540 1541 1541 1542 1542 1543 1543 1543 1544 1544 1544 1544 1544 1544 1544 1543 1542 1542 1541 1540 1539 1539 1538 1537 1537 1536 1535 1534 1533 1532 1531
1525 1527 1528 1530 1531 1533 1535 1536 1538 1539 1540 1541 1541 1542 1542 1543 1544 1545 1545 1545 1546 1546 1546 1546 1546 1546 1546 1545 1545 1544 1543 1542 1541 1540 1539 1539 1538 1537 1536 1535 1534 1533 1532
1525 1527 1529 1530 1532 1534 1535 1537 1538 1540 1541 1542 1542 1543 1544 1545 1546 1546 1547 1547 1548 1548 1548 1548 1548 1548 1547 1547 1546 1545 1544 1543 1542 1542 1541 1540 1539 1538 1537 1536 1535 1533 1532
1526 1528 1529 1531 1533 1535 1536 1538 1539 1540 1541 1543 1544 1545 1545 1546 1547 1548 1548 1549 1549 1550 1550 1550 1549 1549 1549 1548 1547 1547 1546 1545 1544 1543 1542 1541 1540 1539 1538 1536 1535 1534 1532
1527 1528 1530 1532 1534 1536 1537 1539 1540 1541 1542 1544 1545 1546 1547 1548 1549 1550 1550 1550 1550 1551 1551 1551 1551 1550 1550 1549 1549 1548 1547 1546 1545 1544 1543 1542 1541 1540 1538 1537 1536 1534 1533
1527 1529 1531 1533 1535 1536 1538 1540 1541 1542 1544 1545 1546 1547 1548 1549 1550 1551 1551 1551 1552 1552 1552 1552 1551 1551 1551 1550 1550 1549 1548 1547 1546 1545 1544 1542 1541 1540 1539 1537 1536 1534 1533
1528 1530 1532 1534 1535 1537 1538 1540 1542 1543 1545 1546 1547 1548 1549 1550 1551 1552 1553 1553 1553 1553 1553 1553 1552 1552 1551 1551 1550 1549 1548 1547 1546 1545 1544 1543 1541 1540 1539 1537 1536 1534 1533
1529 1531 1533 1535 1536 1538 1539 1541 1543 1544 1545 1547 1548 1549 1550 1551 1552 1553 1553 1554 1554 1554 1554 1554 1554 1553 1552 1551 1550 1549 1548 1547 1545 1544 1543 1542 1541 1540 1539 1537 1536 1534 1532
1530 1532 1534 1535 1537 1539 1541 1542 1544 1545 1546 1548 1549 1550 1551 1552 1553 1553 1554 1554 1554 1554 1554 1554 1554 1553 1552 1551 1550 1549 1547 1546 1545 1544 1543 1541 1541 1540 1538 1537 1535 1534 1532
1531 1533 1535 1536 1538 1540 1542 1543 1545 1546 1547 1549 1550 1551 1552 1553 1553 1554 1554 1554 1554 1554 1554 1554 1553 1552 1551 1550 1549 1548 1547 1546 1544 1543 1542 1541 1540 1539 1538 1536 1535 1533 1532
1532 1534 1536 1537 1539 1541 1543 1544 1546 1547 1548 1549 1550 1552 1553 1553 1554 1554 1554 1554 1554 1554 1554 1554 1553 1552 1551 1550 1549 1547 1546 1545 1544 1542 1541 1540 1539 1538 1537 1536 1534 1532 1531
1533 1535 1537 1538 1540 1542 1543 1545 1546 1547 1549 1550 1551 1552 1553 1554 1554 1554 1554 1555 1555 1554 1554 1553 1553 1551 1550 1549 1548 1547 1545 1544 1543 1541 1540 1539 1538 1537 1536 1534 1533 1531 1529